TimePDT,TemperatureF,Dew PointF,Humidity,Sea Level PressureIn,VisibilityMPH,Wind Direction,Wind SpeedMPH,Gust SpeedMPH,PrecipitationIn,Events,Conditions,WindDirDegrees,DateUTC
12:56 AM,43.0,27.0,53,30.10,10.0,ENE,4.6,-,N/A,,Clear,70,2012-10-15 07:56:00
1:56 AM,43.0,26.1,51,30.10,10.0,ENE,4.6,-,N/A,,Clear,70,2012-10-15 08:56:00
2:56 AM,42.1,26.1,53,30.07,10.0,Calm,Calm,-,N/A,,Clear,0,2012-10-15 09:56:00
3:56 AM,39.0,26.1,60,30.08,10.0,South,3.5,-,N/A,,Clear,170,2012-10-15 10:56:00
5:56 AM,37.9,26.1,62,30.12,10.0,Calm,Calm,-,N/A,,Clear,0,2012-10-15 12:56:00
6:56 AM,41.0,26.1,55,30.12,10.0,NNW,5.8,-,N/A,,Clear,340,2012-10-15 13:56:00
7:56 AM,43.0,26.1,51,30.14,10.0,WSW,4.6,-,N/A,,Clear,250,2012-10-15 14:56:00
8:56 AM,44.1,28.0,53,30.15,10.0,Calm,Calm,-,N/A,,Clear,0,2012-10-15 15:56:00
9:56 AM,54.0,28.9,38,30.14,10.0,Calm,Calm,-,N/A,,Partly Cloudy,0,2012-10-15 16:56:00
11:56 AM,70.0,28.0,21,30.09,10.0,WSW,13.8,18.4,N/A,,Clear,250,2012-10-15 18:56:00
12:56 PM,71.1,27.0,19,30.05,10.0,WSW,11.5,19.6,N/A,,Clear,240,2012-10-15 19:56:00
1:56 PM,73.9,27.0,18,30.02,10.0,West,12.7,20.7,N/A,,Clear,270,2012-10-15 20:56:00
2:56 PM,73.0,30.9,21,30.00,10.0,West,15.0,-,N/A,,Clear,280,2012-10-15 21:56:00
4:56 PM,71.1,34.0,26,29.98,10.0,WSW,8.1,-,N/A,,Clear,250,2012-10-15 23:56:00
5:56 PM,68.0,33.1,27,30.01,10.0,West,9.2,-,N/A,,Clear,260,2012-10-16 00:56:00
6:56 PM,59.0,30.9,35,30.04,10.0,South,4.6,-,N/A,,Clear,190,2012-10-16 01:56:00
7:56 PM,54.0,30.0,40,30.05,10.0,West,3.5,-,N/A,,Clear,260,2012-10-16 02:56:00
8:56 PM,53.1,30.0,41,30.04,10.0,Calm,Calm,-,N/A,,Clear,0,2012-10-16 03:56:00
9:56 PM,50.0,30.0,46,30.02,10.0,Calm,Calm,-,N/A,,Clear,0,2012-10-16 04:56:00
10:56 PM,48.9,28.9,46,30.00,10.0,Calm,Calm,-,N/A,,Clear,0,2012-10-16 05:56:00
11:56 PM,48.9,28.9,46,29.97,10.0,Calm,Calm,-,N/A,,Clear,0,2012-10-16 06:56:00